Location: Cold Norton
(51.6667°N, 0.6667°E)
Time: 06:11:34
(UTC+00:00)

Cosmos 2082 Rocket - Pass Details

Date: 18 November 2025
Orbit: 834 x 851 km, 71.0° (Epoch: 16 December)

Event Time Altitude Azimuth Distance (km) Brightness Sun altitude
Rises 17:29:57 0° 329° (NNW) 3,394 5.6 -13.2°
Reaches altitude 10° 17:32:24 10° 331° (NNW) 2,455 4.8 -13.6°
Maximum altitude 17:38:03 81° 58° (ENE) 851 2.1 -14.4°
Drops below altitude 10° 17:43:40 10° 147° (SSE) 2,443 4.4 -15.3°
Sets 17:46:06 0° 148° (SSE) 3,375 5.1 -15.6°
